Weather Roundup
Issued by NWS Springfield, MO

Home | Current Version | Previous Version | Text Only | Print | Product List | Glossary On
Versions: 1 2 3 4 5 6 7 8 9 10 11 12 13 14 15 16 17 18 19 20 21 22 23 24 25 26 27 28 29 30 31 32 33 34 35 36 37 38 39 40 41 42 43 44 45 46 47 48 49 50
000
NZUS99 KSGF 020757
HRRSGF

HOURLY WEATHER
NATIONAL WEATHER SERVICE SPRINGFIELD MO
300 AM CDT WED SEP 02 2015

......SGF CWA......

CITY           SKY/WX    TMP DP  RH WIND       PRES   REMARKS
SPRINGFIELD    CLEAR     72  66  81 S9        30.07S
WEST PLAINS    CLEAR     70  66  87 CALM      30.11F
ROLLA          CLEAR     73  69  87 S10       30.07S

......SURROUNDING SGF CWA......

CITY           SKY/WX    TMP DP  RH WIND       PRES   REMARKS
CHANUTE        CLEAR     71  67  87 S8        30.01S
PARSONS        FAIR      69  67  93 S3        30.02S
COFFEYVILLE    CLEAR     71  67  87 S6        30.01S
EMPORIA        PTCLDY    72  67  84 S14       29.97F
HARRISON AR    CLEAR     65  64  97 SE5       30.10F

......KANSAS AND MISSOURI......

CITY           SKY/WX    TMP DP  RH WIND       PRES   REMARKS
KANSAS CTY INT PTCLDY    72  65  78 S9        29.98F
SEDALIA        CLEAR     72  68  87 S7        30.03F
ST JOSEPH      LGT RAIN  74  68  81 SW5       29.98S
ST LOUIS       CLEAR     78  68  71 CALM      30.06F
WICHITA        MOCLDY    77  64  64 S10       29.98S
TOPEKA         CLEAR     76  67  73 S5        29.96F
OLATHE         CLEAR     71  65  81 S6        29.99F

......TENNESSEE......

CITY           SKY/WX    TMP DP  RH WIND       PRES   REMARKS
MEMPHIS        NOT AVBL
NASHVILLE      MOCLDY    71  67  87 CALM      30.10S

......ARKANSAS.......

CITY           SKY/WX    TMP DP  RH WIND       PRES   REMARKS
FAYETTEVILLE   CLEAR     67  67 100 CALM      30.09S
FT SMITH       CLEAR     73  66  78 NE5       30.05R
LITTLE ROCK    PTCLDY    74  69  85 CALM      30.06S

......OKLAHOMA.......

CITY           SKY/WX    TMP DP  RH WIND       PRES   REMARKS
TULSA          PTCLDY    77  67  71 S13       30.00F
PONCA CITY     CLEAR     77  64  64 S9        29.99F
MCALESTER      CLEAR     75  67  76 S5        30.05S
OKLAHOMA CITY  PTCLDY    70  64  81 SE9       30.03S

......IOWA............

CITY           SKY/WX    TMP DP  RH WIND       PRES   REMARKS
DES MOINES     NOT AVBL
QUAD CITIES    CLEAR     72  67  84 CALM      30.01S

......ILLINOIS........

CITY           SKY/WX    TMP DP  RH WIND       PRES   REMARKS
QUINCY         NOT AVBL
CHICAGO        PTCLDY    74  69  85 SW5       30.02S




USA.gov is the U.S. government's official web portal to all federal, state and local government web resources and services.